Theta_e
277 278 278 277 278 277 277 277 275 271 271 273 274 276 276 276 277 277 276 279 283 284 285 286 287 288 289 289 290 291 292 292 292 293 294 295 296 298
277 277 277 276 276 276 276 276 275 273 271 274 274 274 275 276 277 276 276 280 280 282 284 285 286 287 287 288 288 289 290 291 291 292 292 293 293 294
276 276 276 276 274 274 274 274 274 273 271 272 273 274 273 274 275 276 276 276 277 281 283 284 285 285 286 286 287 288 288 288 289 290 289 290 291 292
276 275 275 276 274 273 273 273 273 273 271 270 272 272 272 274 274 274 276 278 277 279 283 283 284 284 284 285 285 285 286 286 286 286 287 288 290 291
275 275 275 274 273 273 272 272 272 274 272 271 271 272 273 274 274 275 275 275 277 279 281 281 281 282 283 283 283 283 283 284 284 285 286 287 288 289
275 275 275 274 274 273 273 272 273 272 272 271 271 271 273 274 274 273 272 274 274 276 277 278 279 279 280 281 281 281 281 283 284 285 285 286 286 287
275 276 275 275 278 276 274 273 272 272 271 270 271 271 272 273 272 273 271 273 273 273 273 273 273 273 274 277 278 279 282 283 284 284 284 285 285 286
274 275 275 275 278 280 281 281 277 270 264 263 271 272 273 273 273 272 272 270 268 273 271 270 272 272 273 274 278 280 280 281 282 283 284 286 284 284
275 275 275 275 275 274 277 280 280 281 281 276 274 274 273 273 273 272 272 270 269 271 269 267 271 270 272 274 277 278 280 281 282 282 282 283 283 283
275 275 275 275 274 273 273 272 273 273 274 275 275 275 274 275 276 274 271 267 268 269 270 265 269 269 271 271 276 277 279 280 279 280 281 282 282 283
276 275 274 274 276 279 275 271 272 273 277 280 281 281 281 280 278 272 263 257 263 266 269 267 268 267 269 269 272 276 277 277 278 279 280 280 281 281
275 275 277 275 277 279 276 271 270 272 273 271 272 274 274 271 274 271 268 262 263 261 269 266 266 267 264 268 270 270 271 274 276 277 278 279 280 277
274 274 274 278 280 281 281 276 274 276 273 274 268 268 267 267 268 269 269 268 264 264 268 269 266 265 264 264 267 269 270 271 271 273 276 277 279 279
274 274 273 278 279 280 280 281 281 281 272 264 263 264 265 266 267 268 269 269 268 267 268 268 265 265 263 263 263 267 268 269 270 270 272 275 277 278
276 276 278 279 280 280 281 281 280 273 267 263 264 266 266 267 268 267 267 267 267 267 268 267 266 266 265 264 263 264 266 267 269 270 270 271 272 274
279 276 277 280 280 279 275 276 275 272 270 268 266 266 266 264 263 265 263 263 262 261 266 267 267 266 264 264 264 263 265 264 267 268 270 271 273 274
270 261 262 267 270 271 272 271 271 271 268 268 267 263 263 263 262 262 262 259 258 259 260 263 265 266 265 265 262 263 264 265 268 269 269 268 271 273
269 268 268 268 269 268 268 268 268 267 267 267 265 263 262 261 260 259 260 257 257 258 259 261 261 261 262 261 268 265 265 266 267 267 269 269 269 273
266 264 262 262 263 265 266 267 267 268 267 266 265 262 261 259 257 256 258 258 257 257 258 260 259 260 257 257 262 269 265 265 266 267 269 269 269 272
256 254 253 253 255 256 258 261 263 261 262 263 262 259 258 257 252 254 257 255 256 256 256 257 258 260 259 258 259 262 269 266 267 267 267 269 271 276
248 249 249 249 251 252 254 254 257 258 259 258 256 255 256 254 250 255 256 257 257 255 254 256 261 264 262 261 257 258 263 270 270 267 268 268 268 267
247 246 247 246 246 248 252 251 250 250 251 254 255 255 255 255 255 254 255 256 253 255 256 258 261 260 257 259 258 258 261 264 267 270 272 272 269 267
246 245 245 245 245 248 249 248 247 250 250 255 255 254 254 252 254 255 256 254 255 254 253 256 258 258 256 257 258 259 258 260 262 263 265 270 272 273
Wind_Speed
6 6 4 3 3 3 3 2 3 2 3 3 3 2 2 3 7 6 9 17 23 23 25 26 28 28 30 31 30 31 31 31 30 30 31 30 31 30
4 6 4 3 3 2 2 2 2 4 3 3 4 3 2 4 8 7 8 18 19 23 25 27 28 30 30 30 31 30 31 32 31 30 32 31 30 30
5 6 5 5 3 3 2 2 3 3 3 4 3 3 2 6 8 6 8 8 9 21 26 27 29 30 30 30 31 32 31 32 31 30 30 31 30 30
6 6 6 4 5 4 3 4 3 3 3 5 3 2 3 8 8 9 7 7 9 17 26 29 28 28 30 31 32 34 33 30 30 30 29 30 29 28
6 6 6 6 4 4 4 4 3 3 3 3 5 1 4 5 9 7 9 10 8 20 23 25 26 28 29 32 31 30 30 28 30 28 28 29 29 29
6 6 6 6 6 6 5 5 4 3 4 4 5 6 5 6 4 8 13 8 11 11 17 18 23 29 28 28 28 28 29 28 29 30 28 28 28 27
5 5 5 6 10 8 4 5 4 4 3 4 5 6 7 7 7 7 9 11 13 11 8 11 13 11 12 20 22 26 31 29 30 31 30 29 27 27
7 6 5 6 10 13 13 14 9 5 5 3 6 7 9 6 6 7 9 10 10 1 12 17 10 11 11 11 25 30 33 32 30 28 28 23 24 25
7 5 5 5 7 5 10 14 14 15 15 7 9 8 7 6 9 11 8 10 12 10 11 15 11 10 10 12 29 31 29 27 25 28 30 30 28 27
6 6 6 6 7 6 5 7 9 8 10 8 8 8 7 8 8 7 9 9 11 9 8 12 8 11 12 12 26 25 24 28 32 29 28 28 26 25
6 7 7 8 11 14 8 8 9 10 12 19 20 19 18 16 14 7 5 2 9 8 8 7 8 14 11 13 8 19 29 28 28 28 26 28 27 25
5 7 14 11 14 17 10 6 10 10 6 7 4 6 6 6 13 7 5 6 6 8 2 8 10 10 9 5 9 11 11 22 26 28 28 25 23 9
6 6 7 16 19 19 20 10 12 9 11 8 4 2 4 6 4 5 7 6 7 9 11 10 8 10 7 13 10 9 12 12 14 15 22 23 23 19
8 6 5 15 17 18 16 19 21 18 2 3 2 4 4 3 3 4 7 8 8 12 12 12 9 11 11 13 15 9 13 12 11 11 11 17 23 21
6 9 15 15 17 16 21 21 16 2 4 3 5 4 2 2 4 5 6 9 9 10 9 12 9 11 10 12 14 15 16 10 12 8 12 11 11 10
12 7 7 13 13 10 4 8 5 3 5 6 5 4 2 2 2 4 5 5 6 7 8 9 10 11 11 11 11 14 11 9 10 12 12 12 11 9
4 1 1 2 6 7 8 7 7 6 6 6 6 3 2 2 4 2 3 3 5 6 9 8 8 11 11 14 13 9 11 11 10 10 12 13 11 10
3 4 3 3 5 5 5 6 4 5 6 6 5 4 5 4 3 1 3 3 5 6 8 9 10 10 7 6 14 9 9 10 11 12 11 10 11 10
3 2 2 2 3 5 5 6 7 4 5 5 6 4 3 2 2 2 4 4 5 5 7 8 7 8 10 11 6 12 9 13 12 11 10 8 11 12
2 1 0 1 1 2 2 4 6 3 2 4 3 2 2 2 2 3 4 3 5 4 7 7 6 6 8 7 10 14 20 11 10 12 11 10 11 18
1 1 1 2 2 2 3 3 4 3 3 3 2 2 1 2 3 4 4 7 7 3 7 7 7 14 9 7 5 7 10 17 16 12 10 9 7 5
1 1 3 3 3 3 4 3 3 3 3 2 2 3 3 3 5 3 4 5 3 4 6 8 9 7 4 4 9 11 10 10 16 17 15 14 7 7
3 3 4 4 3 3 3 2 2 3 3 4 4 3 3 3 4 4 4 3 4 4 4 7 6 3 3 3 7 8 10 12 7 9 7 21 17 16
Wind_Direction
113 115 107 109 120 129 118 144 153 226 279 290 288 198 352 319 325 337 328 324 329 331 332 331 327 324 323 321 317 314 314 310 309 308 306 307 299 305
121 126 124 144 139 134 135 138 156 176 246 230 256 266 294 324 324 326 303 315 317 328 329 325 321 322 320 317 314 311 310 309 308 309 309 308 304 301
136 149 159 154 160 156 159 147 168 166 231 276 259 252 276 322 325 310 298 299 313 321 322 320 321 319 318 315 312 311 312 311 310 309 306 304 301 298
164 164 166 164 182 181 181 192 187 192 222 283 274 299 284 323 305 305 310 315 315 310 317 319 319 317 316 315 313 311 309 308 307 304 303 298 300 303
171 178 177 177 192 190 197 202 200 227 210 257 291 307 285 304 315 309 322 317 306 310 314 317 316 317 315 313 311 310 311 310 305 305 302 301 299 299
185 189 187 188 202 198 197 208 213 214 226 244 270 286 293 310 285 326 321 319 312 315 313 310 314 313 311 312 312 312 308 303 301 303 306 302 300 297
199 206 203 206 220 209 189 204 209 224 226 245 269 282 294 307 318 320 304 309 310 299 316 312 310 308 307 310 305 306 303 309 310 307 306 299 291 290
203 207 210 221 233 232 232 237 213 198 224 209 262 269 283 299 306 306 301 315 315 96 336 305 310 306 306 305 305 310 313 304 301 297 300 305 321 316
198 189 207 217 219 222 249 258 256 259 252 240 258 262 279 291 298 297 302 300 289 303 313 293 312 297 303 302 308 310 311 308 316 323 319 317 317 311
199 192 211 219 218 212 221 236 243 243 249 256 258 264 254 268 267 300 310 304 294 294 296 282 309 300 310 299 304 307 311 320 319 312 316 311 309 308
203 205 211 227 232 245 233 231 243 245 250 258 263 249 268 294 307 314 301 325 301 304 306 288 309 309 303 295 292 314 317 313 317 312 315 317 311 308
210 220 221 232 242 246 246 226 253 256 235 244 255 275 283 286 294 288 275 267 278 310 355 319 312 328 312 281 316 302 307 311 312 317 313 310 312 312
221 232 229 239 252 253 250 231 237 258 252 251 196 232 257 247 247 249 255 265 280 265 287 306 308 304 279 309 303 304 303 315 310 309 311 312 308 313
229 236 227 243 255 260 261 257 263 270 223 162 205 239 231 231 241 247 258 266 268 274 292 290 281 292 293 294 296 307 310 306 306 308 307 313 309 309
219 228 242 250 259 263 265 268 272 183 173 191 233 253 211 236 264 274 274 274 274 278 280 281 277 286 284 288 292 301 311 313 306 306 312 306 306 305
262 287 288 274 261 266 281 277 278 219 216 231 239 225 179 175 235 255 280 295 297 293 288 277 288 292 288 283 285 292 297 295 306 305 304 302 304 298
252 49 352 225 264 265 264 258 262 256 239 243 243 220 220 225 252 225 267 291 274 298 303 305 299 290 281 279 285 279 290 292 290 302 314 304 303 300
188 224 236 252 274 282 275 275 247 242 248 252 233 224 229 218 243 240 255 244 280 294 298 304 315 318 310 281 260 285 299 298 309 307 299 293 306 311
53 53 69 29 339 329 322 312 301 291 276 250 250 229 204 196 218 242 268 275 286 286 290 299 305 308 313 311 280 286 325 305 304 306 311 312 300 303
71 111 201 267 279 273 282 296 297 291 259 255 239 210 192 193 226 236 261 260 277 289 298 296 291 291 306 299 305 302 305 302 302 311 316 306 288 293
14 360 250 279 276 269 269 264 272 280 268 255 256 221 220 196 246 247 260 270 278 281 289 291 295 304 291 295 302 297 304 316 316 309 308 302 318 305
199 223 279 266 259 257 269 265 284 292 279 270 262 245 241 230 251 235 239 265 247 266 279 286 301 306 302 296 298 305 307 318 323 327 334 355 324 327
246 226 251 246 249 254 259 269 257 266 245 245 240 234 227 235 237 252 261 241 264 284 283 299 303 303 266 272 293 306 304 320 322 329 333 353 353 357